This demonstration page uses our WeatherBlox Daily Observations layout. Learn more.

Left ArrowRight Arrow

39.51506, -84.39828

Hourly Observations for May 18, 2016

Temp ( °F °C ) Dew Point ( °F °C ) Humidity (%) Winds ( mph kmh ) Pressure ( in mb ) Visibility ( mi km ) Precip ( " mm )
12:15 am 00:15 Cloudy with Drizzle 55 12.5 49 9.3 81 81 undefined N/A 30.15 1021 7 11 N/A
12:35 am 00:35 Cloudy with Light Rain 55 12.5 49 9.3 81 81 undefined N/A 30.15 1021 7 11 N/A
12:55 am 00:55 Cloudy with Drizzle 55 12.5 49 9.5 82 82 undefined N/A 30.15 1021 7 11 N/A
1:15 am 01:15 Cloudy 55 12.5 49 9.5 82 82 undefined N/A 30.15 1021 7 11 N/A
1:35 am 01:35 Cloudy 55 12.5 49 9.5 82 82 undefined N/A 30.15 1021 7 11 N/A
1:55 am 01:55 Cloudy 55 12.5 49 9.5 82 82 undefined N/A 30.15 1021 7 11 N/A
2:15 am 02:15 Cloudy with Light Rain 55 12.5 49 9.3 81 81 undefined N/A 30.15 1021 7 11 N/A
2:35 am 02:35 Cloudy with Drizzle 55 12.5 49 9.3 81 81 undefined N/A 30.15 1021 7 11 N/A
2:55 am 02:55 Cloudy with Light Rain 55 12.5 49 9.3 81 81 undefined N/A 30.15 1021 7 11 N/A
3:15 am 03:15 Cloudy with Light Rain 55 12.5 49 9.3 81 81 undefined N/A 30.12 1020 7 11 N/A
3:35 am 03:35 Cloudy with Drizzle 55 12.5 49 9.3 81 81 undefined N/A 30.15 1021 7 11 N/A
3:55 am 03:55 Cloudy 55 12.5 49 9.3 81 81 undefined N/A 30.15 1021 7 11 N/A
4:15 am 04:15 Cloudy 55 12.5 49 9.3 81 81 undefined N/A 30.15 1021 7 11 N/A
4:35 am 04:35 Cloudy 55 12.5 49 9.3 81 81 undefined N/A 30.12 1020 7 11 N/A
4:55 am 04:55 Cloudy 55 12.5 49 9.3 81 81 undefined N/A 30.15 1021 7 11 N/A
5:15 am 05:15 Cloudy with Light Rain 55 12.5 49 9.3 81 81 undefined N/A 30.12 1020 5 8 N/A
5:35 am 05:35 Cloudy 55 12.5 49 9.3 81 81 undefined N/A 30.15 1021 7 11 N/A
5:55 am 05:55 Cloudy 55 12.5 49 9.3 81 81 undefined N/A 30.15 1021 7 11 N/A
6:15 am 06:15 Cloudy with Drizzle 55 12.5 49 9.3 81 81 undefined N/A 30.15 1021 7 11 N/A
6:35 am 06:35 Cloudy with Light Rain 55 12.5 49 9.2 80 80 undefined N/A 30.15 1021 7 11 N/A
6:55 am 06:55 Cloudy with Drizzle 55 12.5 48 9.1 80 80 undefined N/A 30.15 1021 7 11 N/A
7:15 am 07:15 Partly Cloudy 55 12.5 48 8.8 78 78 undefined N/A 30.15 1021 10 16 N/A
7:35 am 07:35 Mostly Cloudy 55 12.5 47 8.5 77 77 undefined N/A 30.18 1022 10 16 N/A
7:55 am 07:55 Cloudy 55 12.5 47 8.3 76 76 undefined N/A 30.18 1022 10 16 N/A
8:15 am 08:15 Cloudy 55 12.5 46 7.9 74 74 undefined N/A 30.18 1022 10 16 N/A
8:35 am 08:35 Cloudy 55 12.5 46 7.8 73 73 undefined N/A 30.18 1022 10 16 N/A
8:55 am 08:55 Partly Cloudy 57 13.8 47 8.2 69 69 undefined N/A 30.18 1022 10 16 N/A
9:15 am 09:15 Partly Cloudy 57 13.9 45 7.1 64 64 undefined N/A 30.18 1022 10 16 N/A
9:35 am 09:35 Partly Cloudy 60 15.3 46 7.5 60 60 undefined N/A 30.18 1022 10 16 N/A
9:55 am 09:55 Sunny 60 15.3 44 6.9 58 58 undefined N/A 30.18 1022 10 16 N/A
10:15 am 10:15 Sunny 61 15.9 43 6 52 52 undefined N/A 30.18 1022 10 16 N/A
10:35 am 10:35 Sunny 62 16.4 40 4.5 45 45 undefined N/A 30.18 1022 10 16 N/A
10:55 am 10:55 Sunny 62 16.6 39 3.8 43 43 undefined N/A 30.18 1022 10 16 N/A
11:10 am 11:10 Partly Cloudy 62 16.8 42 5.4 47 47 undefined N/A 30.18 1022 10 16 N/A
11:35 am 11:35 Partly Cloudy 64 18 39 4.1 40 40 undefined N/A 30.15 1021 10 16 N/A
11:55 am 11:55 Partly Cloudy 64 18 40 4.7 42 42 undefined N/A 30.15 1021 10 16 N/A
12:15 pm 12:15 Partly Cloudy 65 18.4 40 4.5 40 40 undefined N/A 30.15 1021 10 16 N/A
12:35 pm 12:35 Sunny 66 18.9 39 3.9 37 37 undefined N/A 30.15 1021 10 16 N/A
12:55 pm 12:55 Sunny 67 19.5 40 4.3 37 37 undefined N/A 30.15 1021 10 16 N/A
1:15 pm 13:15 Partly Cloudy 67 19.5 37 2.9 33 33 undefined N/A 30.15 1021 10 16 N/A
1:35 pm 13:35 Partly Cloudy 69 20.8 41 4.9 35 35 undefined N/A 30.12 1020 10 16 N/A
1:55 pm 13:55 Partly Cloudy 69 20.8 40 4.5 34 34 undefined N/A 30.12 1020 10 16 N/A
2:15 pm 14:15 Mostly Cloudy 67 19.6 38 3.6 35 35 undefined N/A 30.12 1020 10 16 N/A
2:35 pm 14:35 Partly Cloudy 69 20.8 39 3.8 33 33 NNE 10 17 30.12 1020 10 16 N/A
2:55 pm 14:55 Mostly Cloudy 69 20.8 34 1.3 27 27 N 10 17 30.12 1020 10 16 N/A
3:15 pm 15:15 Cloudy 69 20.8 33 0.6 26 26 NW 9 15 30.12 1020 10 16 N/A
3:35 pm 15:35 Cloudy 69 20.8 32 0.1 25 25 NE 5 7 30.12 1020 10 16 N/A
3:55 pm 15:55 Mostly Cloudy 69 20.8 28 -2 22 22 NNE 6 9 30.12 1020 10 16 N/A
4:15 pm 16:15 Partly Cloudy 69 20.8 29 -1.8 22 22 N 5 7 30.09 1019 10 16 N/A
4:35 pm 16:35 Partly Cloudy 69 20.8 29 -1.4 23 23 N 6 9 30.09 1019 10 16 N/A
4:55 pm 16:55 Mostly Cloudy 69 20.8 31 -0.4 24 24 NW 5 7 30.09 1019 10 16 N/A
5:15 pm 17:15 Cloudy 69 20.8 30 -1.3 23 23 NNE 3 6 30.09 1019 10 16 N/A
5:35 pm 17:35 Cloudy 69 20.8 29 -1.6 22 22 NNW 9 15 30.09 1019 10 16 N/A
5:55 pm 17:55 Mostly Cloudy 69 20.8 29 -1.6 22 22 NW 7 11 30.09 1019 10 16 N/A
6:15 pm 18:15 Partly Cloudy 69 20.8 28 -2 22 22 NNW 8 13 30.09 1019 10 16 N/A
6:35 pm 18:35 Partly Cloudy 69 20.8 28 -2.4 21 21 NNW 10 17 30.09 1019 10 16 N/A
6:55 pm 18:55 Partly Cloudy 69 20.8 29 -1.8 22 22 N 7 11 30.09 1019 10 16 N/A
7:15 pm 19:15 Cloudy 69 20.8 31 -0.8 24 24 N 7 11 30.09 1019 10 16 N/A
7:35 pm 19:35 Cloudy 67 19.5 31 -0.5 26 26 NNW 6 9 30.09 1019 10 16 N/A
7:55 pm 19:55 Mostly Cloudy 65 18.5 32 0.1 29 29 N 8 13 30.09 1019 10 16 N/A
8:15 pm 20:15 Sunny 64 17.8 32 0.2 31 31 N 7 11 30.12 1020 10 16 N/A
8:35 pm 20:35 Sunny 62 16.6 33 0.5 34 34 NNW 3 6 30.15 1021 10 16 N/A
8:55 pm 20:55 Partly Cloudy 60 15.8 35 1.6 38 38 NNW 5 7 30.15 1021 10 16 N/A
9:15 pm 21:15 Cloudy 60 15.3 37 2.6 43 43 NW 5 7 30.15 1021 10 16 N/A
9:35 pm 21:35 Cloudy 58 14.5 37 3 46 46 NNW 3 6 30.15 1021 10 16 N/A
9:55 pm 21:55 Mostly Cloudy 57 13.8 38 3.4 50 50 NNW 3 6 30.15 1021 10 16 N/A
10:15 pm 22:15 Partly Cloudy 56 13.2 40 4.2 55 55 N 5 7 30.18 1022 10 16 N/A
10:35 pm 22:35 Clear 55 12.9 39 3.9 55 55 NNW 3 6 30.18 1022 10 16 N/A
10:55 pm 22:55 Partly Cloudy 55 12.5 39 4.1 57 57 N 5 7 30.18 1022 10 16 N/A
11:15 pm 23:15 Cloudy 55 12.5 39 4.1 57 57 N 6 9 30.18 1022 10 16 N/A
11:35 pm 23:35 Cloudy 55 12.5 39 4.1 57 57 N 6 9 30.18 1022 10 16 N/A
11:55 pm 23:55 Mostly Cloudy 55 12.5 40 4.2 57 57 N 6 9 30.18 1022 10 16 N/A

Powered by AerisWeather